FW9558 Weather Reports


Display with metric or nautical units.
time (UTC)temp
F
wind
direction
speed
MPH
gust
MPH
rain 1hr
in
rain 24hr
in
rain mn
in
humidity
%
barometer
mb
20260506133037 56 196 3.0 8.0 0.00 0.00 0.00 85 1011.4
20260506131538 56 344 3.0 12.0 0.00 0.00 0.00 86 1011.3
20260506130035 56 360 2.0 6.0 0.00 0.00 0.00 88 1011.3
20260506124542 55 338 0.0 9.0 0.00 0.00 0.00 88 1011.1
20260506123043 56 336 1.0 6.0 0.00 0.00 0.00 88 1011.2
20260506121538 56 355 1.0 6.0 0.00 0.00 0.00 88 1011.0
20260506120104 57 26 2.0 12.0 0.00 0.00 0.00 87 1010.9
20260506114536 58 321 1.0 6.0 0.00 0.00 0.00 88 1011.0
20260506113040 57 348 1.0 6.0 0.00 0.00 0.00 89 1010.8
20260506111540 56 5 0.0 6.0 0.00 0.00 0.00 92 1010.8
20260506110038 56 0 0.0 4.0 0.00 0.00 0.00 93 1010.9
20260506104540 55 272 0.0 4.0 0.00 0.00 0.00 93 1010.8
20260506103036 55 0 0.0 4.0 0.00 0.00 0.00 93 1010.9
20260506101533 55 0 0.0 3.0 0.00 0.00 0.00 93 1010.8
20260506100039 54 351 1.0 6.0 0.00 0.00 0.00 93 1010.8
20260506094545 55 0 1.0 4.0 0.00 0.00 0.00 94 1010.6
20260506093045 54 324 1.0 4.0 0.00 0.00 0.00 94 1010.4
20260506091536 53 333 1.0 4.0 0.00 0.00 0.00 94 1010.4
20260506090035 53 22 1.0 4.0 0.00 0.00 0.00 94 1010.3
20260506084541 53 352 0.0 4.0 0.00 0.00 0.00 94 1010.1
20260506083043 53 346 1.0 4.0 0.00 0.00 0.00 94 1010.0
20260506081540 53 340 1.0 5.0 0.00 0.00 0.00 94 1010.0
20260506073041 52 5 2.0 5.0 0.00 0.00 0.00 95 1009.7
20260506071549 52 0 0.0 4.0 0.00 0.00 0.00 95 1009.5
20260506061537 51 0 0.0 0.0 0.00 0.00 0.00 95 1009.2
20260506044550 51 0 0.0 0.0 0.00 0.00 0.00 95 1008.7
20260506043040 51 0 0.0 0.0 0.00 0.00 0.00 94 1008.6
20260506041546 51 0 0.0 0.0 0.00 0.00 0.00 94 1008.7
20260506040043 51 0 0.0 0.0 0.00 0.00 0.00 94 1008.6
20260506034536 51 0 0.0 0.0 0.00 0.00 0.00 94 1008.7
20260506033036 50 0 0.0 1.0 0.00 0.00 0.00 94 1008.6
20260506031553 50 0 0.0 1.0 0.00 0.00 0.00 94 1008.8
20260506030056 50 0 0.0 2.0 0.00 0.00 0.00 94 1008.8
20260506024540 51 0 0.0 2.0 0.00 0.00 0.00 94 1008.7
20260506023038 51 0 0.0 0.0 0.00 0.00 0.00 94 1008.7
20260506021533 51 0 0.0 0.0 0.00 0.00 0.00 94 1008.8
20260506020041 51 0 0.0 2.0 0.00 0.00 0.00 94 1008.9
20260506014542 51 0 0.0 0.0 0.00 0.00 0.00 94 1008.9
20260506013044 51 0 0.0 3.0 0.00 0.00 0.00 94 1009.1
20260506011539 50 0 0.0 2.0 0.00 0.00 0.00 93 1009.1
20260506010037 50 0 0.0 3.0 0.00 0.00 0.00 93 1009.2
20260506004604 50 0 0.0 5.0 0.00 0.00 0.00 93 1009.5
20260506003034 50 153 1.0 5.0 0.00 0.00 0.00 93 1009.5
20260506001540 51 148 0.0 5.0 0.00 0.00 0.00 92 1009.4
20260506000043 51 157 0.0 4.0 0.00 0.00 0.00 92 1009.6
20260505234605 51 0 1.0 4.0 0.00 0.00 0.00 92 1009.8
20260505233036 51 0 0.0 5.0 0.00 0.00 0.00 92 1009.7
20260505231538 51 169 2.0 4.0 0.00 0.00 0.00 92 1009.8
20260505230036 51 0 0.0 1.0 0.00 0.00 0.00 91 1009.8
20260505224539 51 0 0.0 3.0 0.00 0.00 0.00 91 1009.8
20260505223052 52 0 0.0 2.0 0.00 0.00 0.00 91 1009.9
20260505221553 52 0 0.0 1.0 0.00 0.00 0.00 90 1010.0
20260505220037 53 0 0.0 1.0 0.00 0.00 0.00 90 1010.2
20260505215021 53 0 0.0 0.0 0.00 0.00 0.00 89 1010.2
20260505213035 53 0 0.0 2.0 0.00 0.00 0.00 88 1010.4
20260505211541 54 0 0.0 0.0 0.00 0.00 0.00 88 1010.6
20260505210040 54 0 0.0 3.0 0.00 0.00 0.00 87 1010.7
20260505204539 55 0 0.0 3.0 0.00 0.00 0.00 85 1010.8
20260505203037 55 248 2.0 5.0 0.00 0.00 0.00 85 1010.8
20260505201542 56 242 2.0 7.0 0.00 0.00 0.00 84 1010.7
20260505200045 56 290 2.0 8.0 0.00 0.00 0.00 83 1010.4
20260505194540 56 218 1.0 9.0 0.00 0.00 0.00 82 1010.3
20260505193038 57 278 2.0 7.0 0.00 0.00 0.00 81 1010.3
20260505191536 57 232 2.0 8.0 0.00 0.00 0.00 79 1010.0
20260505190045 58 284 1.0 9.0 0.00 0.00 0.00 78 1010.0
20260505185000 59 250 2.0 9.0 0.00 0.00 0.00 76 1009.8
20260505183045 60 172 3.0 11.0 0.00 0.00 0.00 73 1009.7
20260505181539 61 260 3.0 14.0 0.00 0.00 0.00 72 1009.6
20260505180037 61 215 6.0 14.0 0.00 0.00 0.00 70 1009.4
20260505174536 62 260 6.0 12.0 0.00 0.00 0.00 68 1009.4
20260505173046 63 238 5.0 15.0 0.00 0.00 0.00 67 1009.5
20260505171539 64 309 6.0 15.0 0.00 0.00 0.00 65 1009.5
20260505170039 64 185 5.0 16.0 0.00 0.00 0.00 65 1009.7
20260505164538 65 266 6.0 12.0 0.00 0.00 0.00 65 1009.5
20260505163043 65 288 5.0 16.0 0.00 0.00 0.00 65 1009.6
20260505161543 64 265 4.0 15.0 0.00 0.00 0.00 67 1009.7
20260505153045 65 223 5.0 13.0 0.00 0.00 0.00 62 1009.5
20260505151541 66 293 5.0 12.0 0.00 0.00 0.00 61 1009.5